Weather History for McGuire AFB, NJ

Change the Weather History Date:

Sunday, December 9, 2012

  Actual Average Record
Temperature  
Mean Temperature 46 °F -  
Max Temperature 50 °F 46 °F 59 °F (1999)
Min Temperature 42 °F 29 °F 14 °F (2002)
Degree Days  
Heating Degree Days 19    
Moisture  
Dew Point 46 °F    
Average Humidity 97    
Maximum Humidity 100    
Minimum Humidity 81    
Precipitation  
Precipitation 0.27 in - - ()
Sea Level Pressure  
Sea Level Pressure 30.10 in    
Wind  
Wind Speed 5 mph (NE)    
Max Wind Speed 16 mph    
Max Gust Speed -    
Visibility 5 miles    
Events Fog , Rain    
Averages and records for this station are not official NWS values.
T = Trace of Precipitation, MM = Missing Value Source: NWS Daily Summary

Daily Weather History Graph

Daily Weather History Graph

Search for Another Location

Airport:

Trip Planner

Search our weather history database for the weather conditions in past years. The results will help you decide how hot, cold, wet, or windy it might be!

Date:

Astronomy

Dec. 09, 2012 Rise Set
Actual Time 7:08 AM EST 4:32 PM EST
Civil Twilight 6:38 AM EST 5:03 PM EST
Nautical Twilight 6:04 AM EST 5:37 PM EST
Astronomical Twilight 5:31 AM EST 6:10 PM EST
Moon 2:38 AM EST (12/9) 1:38 PM EST (12/9)
Length of Visible Light 10h 24m
Length of Day
9h 24m
Waning Crescent, 19% of the Moon is Illuminated
Dec 9
Waning Crescent
Dec 13
New
Dec 20
First Quarter
Dec 28
Full
Jan 4
Last Quarter

Hourly Weather History & Observations

Time (EST) Temp. Windchill Dew Point Humidity Pressure Visibility Wind Dir Wind Speed Gust Speed Precip Events Conditions
12:14 AM 50.0 °F - 50.0 °F 100% 30.01 in 3.0 mi West 5.8 mph - N/A   Overcast
12:15 AM 50.0 °F - 50.0 °F 100% 30.01 in 3.0 mi West 5.8 mph - N/A   Overcast
12:22 AM 50.0 °F - 50.0 °F 100% 30.02 in 3.0 mi West 8.1 mph - N/A   Overcast
12:55 AM 49.3 °F - 49.1 °F 99% 30.01 in 5.0 mi West 4.6 mph - N/A   Overcast
12:59 AM 50.0 °F - 48.2 °F 94% 30.01 in 5.0 mi WNW 3.5 mph - N/A   Overcast
1:30 AM 48.2 °F - 48.2 °F 100% 30.04 in 5.0 mi West 4.6 mph - N/A   Overcast
1:55 AM 48.6 °F - 48.4 °F 99% 30.04 in 4.0 mi SW 4.6 mph - N/A   Overcast
2:55 AM 48.0 °F - 47.7 °F 99% 30.05 in 4.0 mi West 3.5 mph - N/A   Overcast
3:00 AM 48.2 °F - 48.2 °F 100% 30.05 in 2.5 mi WSW 3.5 mph - N/A   Overcast
3:03 AM 48.2 °F - 48.2 °F 100% 30.05 in 1.8 mi WSW 3.5 mph - N/A   Overcast
3:04 AM 48.2 °F - 48.2 °F 100% 30.05 in 1.8 mi West 3.5 mph - N/A   Overcast
3:05 AM 48.2 °F - 48.2 °F 100% 30.06 in 1.5 mi West 3.5 mph - N/A   Overcast
3:12 AM 48.2 °F - 48.2 °F 100% 30.06 in 1.8 mi Calm Calm - N/A   Overcast
3:15 AM 48.2 °F - 48.2 °F 100% 30.06 in 2.0 mi West 3.5 mph - N/A   Overcast
3:31 AM 48.2 °F - 48.2 °F 100% 30.06 in 1.8 mi Calm Calm - N/A   Overcast
3:33 AM 48.2 °F - 48.2 °F 100% 30.06 in 1.5 mi Calm Calm - N/A   Overcast
3:37 AM 48.2 °F - 48.2 °F 100% 30.06 in 1.2 mi Calm Calm - N/A   Overcast
3:38 AM 48.2 °F - 48.2 °F 100% 30.06 in 1.0 mi Calm Calm - N/A   Mist
3:41 AM 48.2 °F - 48.2 °F 100% 30.06 in 0.8 mi Calm Calm - N/A   Mist
3:45 AM 48.2 °F - 48.2 °F 100% 30.06 in 0.8 mi Calm Calm - N/A   Mist
3:46 AM 48.2 °F - 48.2 °F 100% 30.06 in 0.8 mi Calm Calm - N/A   Mist
3:47 AM 48.2 °F - 48.2 °F 100% 30.06 in 0.8 mi Calm Calm - N/A   Mist
3:49 AM 48.2 °F - 48.2 °F 100% 30.06 in 0.8 mi Calm Calm - N/A   Mist
3:55 AM 47.7 °F - 47.3 °F 99% 30.06 in 0.8 mi Calm Calm - N/A   Mist
3:57 AM 48.2 °F - 46.4 °F 93% 30.06 in 0.5 mi Calm Calm - N/A Fog Fog
3:58 AM 48.2 °F - 46.4 °F 93% 30.06 in 0.5 mi Calm Calm - N/A Fog Fog
4:06 AM 46.4 °F - 46.4 °F 100% 30.06 in 0.5 mi Calm Calm - N/A Fog Fog
4:20 AM 46.4 °F - 46.4 °F 100% 30.06 in 0.5 mi Calm Calm - N/A Fog Fog
4:21 AM 46.4 °F - 46.4 °F 100% 30.07 in 0.5 mi Calm Calm - N/A Fog Fog
4:48 AM 48.2 °F - 46.4 °F 93% 30.08 in 0.5 mi Calm Calm - N/A Fog Fog
4:54 AM 48.2 °F - 46.4 °F 93% 30.09 in 0.5 mi East 3.5 mph - N/A Fog Fog
4:55 AM 47.5 °F - 47.3 °F 99% 30.09 in 0.5 mi East 3.5 mph - N/A Fog Fog
4:58 AM 48.2 °F - 46.4 °F 93% 30.09 in 0.5 mi Calm Calm - N/A Fog Fog
4:59 AM 48.2 °F - 46.4 °F 93% 30.09 in 0.5 mi Calm Calm - N/A Fog Fog
5:02 AM 48.2 °F - 48.2 °F 100% 30.09 in 0.8 mi Calm Calm - N/A   Mist
5:10 AM 48.2 °F - 48.2 °F 100% 30.09 in 0.5 mi Calm Calm - N/A Fog Fog
5:11 AM 48.2 °F - 48.2 °F 100% 30.09 in 0.5 mi Calm Calm - N/A Fog Fog
5:21 AM 48.2 °F - 48.2 °F 100% 30.09 in 0.5 mi ENE 3.5 mph - N/A Fog Fog
5:40 AM 48.2 °F - 48.2 °F 100% 30.11 in 0.5 mi NE 3.5 mph - N/A Fog Fog
5:55 AM 48.2 °F - 48.0 °F 99% 30.12 in 0.5 mi NNE 3.5 mph - N/A Fog Fog
5:57 AM 48.2 °F - 48.2 °F 100% 30.12 in 0.8 mi NNE 3.5 mph - N/A   Mist
5:58 AM 48.2 °F - 48.2 °F 100% 30.12 in 0.8 mi NNE 3.5 mph - N/A   Mist
6:00 AM 48.2 °F - 48.2 °F 100% 30.13 in 0.8 mi NNE 3.5 mph - N/A   Mist
6:02 AM 48.2 °F - 48.2 °F 100% 30.13 in 1.0 mi North 3.5 mph - N/A   Mist
6:05 AM 48.2 °F - 48.2 °F 100% 30.13 in 1.2 mi North 3.5 mph - N/A   Overcast
6:07 AM 48.2 °F - 48.2 °F 100% 30.14 in 1.5 mi North 3.5 mph - N/A   Overcast
6:09 AM 48.2 °F - 48.2 °F 100% 30.13 in 1.8 mi Calm Calm - N/A   Overcast
6:10 AM 48.2 °F - 48.2 °F 100% 30.13 in 2.0 mi North 3.5 mph - N/A   Overcast
6:12 AM 48.2 °F - 48.2 °F 100% 30.13 in 2.0 mi North 3.5 mph - N/A   Overcast
6:17 AM 48.2 °F - 48.2 °F 100% 30.14 in 3.0 mi Calm Calm - N/A   Overcast
6:27 AM 48.2 °F - 48.2 °F 100% 30.14 in 3.0 mi NNE 3.5 mph - N/A   Mostly Cloudy
6:32 AM 48.2 °F - 48.2 °F 100% 30.13 in 3.0 mi NNE 5.8 mph - N/A Rain Light Rain
6:34 AM 48.2 °F - 48.2 °F 100% 30.13 in 3.0 mi NNE 5.8 mph - N/A Rain Light Rain
6:42 AM 48.2 °F - 48.2 °F 100% 30.14 in 4.0 mi NNE 6.9 mph - N/A Rain Light Rain
6:43 AM 48.2 °F - 48.2 °F 100% 30.14 in 4.0 mi NNE 6.9 mph - N/A   Scattered Clouds
6:51 AM 48.2 °F - 48.2 °F 100% 30.14 in 6.0 mi NNE 8.1 mph - N/A   Mostly Cloudy
6:55 AM 47.5 °F - 47.3 °F 99% 30.14 in 7.0 mi NNE 10.4 mph - 0.00 in   Mostly Cloudy
7:33 AM 46.4 °F 42.9 °F 46.4 °F 100% 30.18 in 10.0 mi North 6.9 mph - N/A Rain Light Rain
7:55 AM 46.8 °F - 46.6 °F 99% 30.18 in 7.0 mi NE 8.1 mph - 0.01 in Rain Light Rain
8:46 AM 46.4 °F 42.9 °F 44.6 °F 93% 30.19 in 10.0 mi NE 6.9 mph - N/A   Mostly Cloudy
8:51 AM 46.4 °F 42.4 °F 44.6 °F 93% 30.19 in 10.0 mi NE 8.1 mph - N/A Rain Light Rain
8:55 AM 46.9 °F - 44.8 °F 92% 30.19 in 10.0 mi NE 9.2 mph - 0.01 in Rain Light Rain
9:55 AM 46.8 °F - 45.5 °F 95% 30.21 in 7.0 mi ENE 6.9 mph - 0.05 in Rain Light Rain
10:42 AM 46.4 °F 44.3 °F 46.4 °F 100% 30.21 in 5.0 mi NE 4.6 mph - N/A Rain Light Rain
10:55 AM 47.5 °F - 46.8 °F 97% 30.22 in 5.0 mi NNE 3.5 mph - 0.07 in Rain Light Rain
10:56 AM 48.2 °F - 46.4 °F 93% 30.21 in 5.0 mi NE 3.5 mph - N/A Rain Light Rain
10:58 AM 48.2 °F - 46.4 °F 93% 30.21 in 5.0 mi NE 4.6 mph - N/A Rain Light Rain
10:59 AM 48.2 °F - 46.4 °F 93% 30.21 in 6.0 mi NE 5.8 mph - N/A Rain Light Rain
11:21 AM 48.2 °F - 46.4 °F 93% 30.20 in 7.0 mi NE 8.1 mph - N/A Rain Light Rain
11:27 AM 48.2 °F - 46.4 °F 93% 30.20 in 6.0 mi NE 8.1 mph - N/A Rain Light Rain
11:55 AM 47.1 °F - 46.0 °F 96% 30.19 in 9.0 mi ENE 8.1 mph - 0.03 in Rain Light Rain
12:16 PM 46.4 °F 41.1 °F 44.6 °F 93% 30.17 in 9.0 mi ENE 11.5 mph - N/A Rain Light Rain
12:22 PM 46.4 °F 41.5 °F 46.4 °F 100% 30.17 in 8.0 mi East 10.4 mph - N/A Rain Light Rain
12:29 PM 46.4 °F 41.5 °F 44.6 °F 93% 30.17 in 9.0 mi ENE 10.4 mph - N/A   Overcast
12:37 PM 46.4 °F 41.5 °F 44.6 °F 93% 30.18 in 10.0 mi ENE 10.4 mph - N/A   Overcast
12:55 PM 45.7 °F 39.5 °F 44.4 °F 95% 30.16 in 10.0 mi ENE 13.8 mph - 0.00 in   Overcast
1:04 PM 46.4 °F 40.1 °F 44.6 °F 93% 30.15 in 10.0 mi ENE 15.0 mph - N/A   Mostly Cloudy
1:05 PM 44.6 °F 37.4 °F 44.6 °F 100% 30.15 in 10.0 mi ENE 16.1 mph - N/A Rain Light Rain
1:06 PM 44.6 °F 37.8 °F 44.6 °F 100% 30.16 in 9.0 mi ENE 15.0 mph - N/A Rain Light Rain
1:13 PM 44.6 °F 38.4 °F 44.6 °F 100% 30.16 in 7.0 mi East 12.7 mph - N/A Rain Light Rain
1:14 PM 44.6 °F 38.1 °F 44.6 °F 100% 30.16 in 7.0 mi East 13.8 mph - N/A Rain Light Rain
1:18 PM 44.6 °F 38.4 °F 42.8 °F 93% 30.16 in 8.0 mi ENE 12.7 mph - N/A   Mostly Cloudy
1:19 PM 44.6 °F 37.8 °F 42.8 °F 93% 30.16 in 9.0 mi East 15.0 mph - N/A   Mostly Cloudy
1:24 PM 44.6 °F 38.1 °F 41.0 °F 87% 30.17 in 10.0 mi ENE 13.8 mph - N/A   Scattered Clouds
1:47 PM 42.8 °F 37.5 °F 37.4 °F 81% 30.16 in 10.0 mi ENE 9.2 mph - N/A   Mostly Cloudy
1:55 PM 43.3 °F 37.7 °F 38.5 °F 83% 30.16 in 10.0 mi East 10.4 mph - 0.01 in   Overcast
1:59 PM 42.8 °F 36.6 °F 39.2 °F 87% 30.16 in 10.0 mi East 11.5 mph - N/A   Overcast
2:26 PM 42.8 °F 37.0 °F 39.2 °F 87% 30.16 in 10.0 mi East 10.4 mph - N/A   Overcast
2:51 PM 42.8 °F 38.6 °F 41.0 °F 93% 30.16 in 10.0 mi East 6.9 mph - N/A   Mostly Cloudy
2:55 PM 43.0 °F 38.2 °F 41.2 °F 93% 30.16 in 10.0 mi ENE 8.1 mph - 0.00 in   Overcast
3:12 PM 42.8 °F 39.3 °F 41.0 °F 93% 30.17 in 10.0 mi NE 5.8 mph - N/A   Overcast
3:25 PM 42.8 °F 37.0 °F 41.0 °F 93% 30.16 in 10.0 mi NE 10.4 mph - N/A   Overcast
3:26 PM 42.8 °F 37.5 °F 41.0 °F 93% 30.16 in 10.0 mi NE 9.2 mph - N/A   Overcast
3:47 PM 42.8 °F 38.0 °F 41.0 °F 93% 30.17 in 10.0 mi NE 8.1 mph - N/A   Overcast
3:50 PM 42.8 °F 37.0 °F 41.0 °F 93% 30.16 in 10.0 mi NE 10.4 mph - N/A   Overcast
3:55 PM 42.8 °F 38.6 °F 41.2 °F 94% 30.16 in 10.0 mi NE 6.9 mph - N/A   Overcast
3:56 PM 42.8 °F 38.6 °F 41.0 °F 93% 30.16 in 10.0 mi NE 6.9 mph - N/A   Overcast
3:57 PM 42.8 °F 38.6 °F 41.0 °F 93% 30.17 in 10.0 mi NE 6.9 mph - N/A   Overcast
4:04 PM 42.8 °F 37.5 °F 41.0 °F 93% 30.16 in 10.0 mi NE 9.2 mph - N/A   Overcast
4:07 PM 42.8 °F 38.0 °F 41.0 °F 93% 30.16 in 10.0 mi NE 8.1 mph - N/A   Overcast
4:16 PM 42.8 °F 38.0 °F 41.0 °F 93% 30.16 in 10.0 mi NE 8.1 mph - N/A   Overcast
4:21 PM 42.8 °F 39.3 °F 41.0 °F 93% 30.17 in 10.0 mi NE 5.8 mph - N/A   Overcast
4:28 PM 42.8 °F 38.0 °F 41.0 °F 93% 30.16 in 10.0 mi NE 8.1 mph - N/A   Overcast
4:46 PM 42.8 °F 37.5 °F 41.0 °F 93% 30.16 in 10.0 mi NE 9.2 mph - N/A   Overcast
4:55 PM 42.6 °F 37.2 °F 41.5 °F 96% 30.17 in 10.0 mi NNE 9.2 mph - N/A   Overcast
5:05 PM 42.8 °F 38.6 °F 41.0 °F 93% 30.16 in 10.0 mi NE 6.9 mph - N/A   Overcast
5:16 PM 42.8 °F 38.0 °F 41.0 °F 93% 30.16 in 6.0 mi NE 8.1 mph - N/A   Overcast
5:19 PM 42.8 °F 37.5 °F 42.8 °F 100% 30.16 in 5.0 mi NE 9.2 mph - N/A   Overcast
5:25 PM 42.8 °F 38.0 °F 42.8 °F 100% 30.16 in 4.0 mi NE 8.1 mph - N/A   Overcast
5:32 PM 42.8 °F 38.6 °F 42.8 °F 100% 30.16 in 4.0 mi ENE 6.9 mph - N/A   Overcast
5:36 PM 42.8 °F 38.6 °F 42.8 °F 100% 30.16 in 3.0 mi NE 6.9 mph - N/A   Overcast
5:40 PM 42.8 °F 38.0 °F 42.8 °F 100% 30.16 in 4.0 mi ENE 8.1 mph - N/A   Overcast
5:55 PM 43.0 °F 37.7 °F 42.4 °F 98% 30.15 in 4.0 mi NE 9.2 mph - N/A   Overcast
6:01 PM 42.8 °F 38.6 °F 42.8 °F 100% 30.15 in 5.0 mi NE 6.9 mph - N/A   Overcast
6:49 PM 42.8 °F 37.5 °F 42.8 °F 100% 30.13 in 5.0 mi NE 9.2 mph - N/A   Overcast
6:54 PM 42.8 °F 38.0 °F 42.8 °F 100% 30.13 in 5.0 mi NE 8.1 mph - N/A   Overcast
6:55 PM 43.5 °F 38.9 °F 43.0 °F 98% 30.13 in 5.0 mi NE 8.1 mph - 0.00 in   Overcast
7:06 PM 44.6 °F 40.7 °F 42.8 °F 93% 30.13 in 5.0 mi NE 6.9 mph - N/A   Overcast
7:07 PM 44.6 °F 40.2 °F 42.8 °F 93% 30.13 in 5.0 mi NE 8.1 mph - N/A   Overcast
7:45 PM 44.6 °F 40.7 °F 44.6 °F 100% 30.12 in 5.0 mi NNE 6.9 mph - N/A Rain Light Rain
7:49 PM 44.6 °F 40.2 °F 44.6 °F 100% 30.12 in 5.0 mi NNE 8.1 mph - N/A Rain Light Rain
7:55 PM 44.4 °F 40.0 °F 44.1 °F 99% 30.11 in 7.0 mi NNE 8.1 mph - 0.01 in Rain Light Rain
8:07 PM 44.6 °F 39.7 °F 44.6 °F 100% 30.10 in 8.0 mi NE 9.2 mph - N/A   Overcast
8:15 PM 44.6 °F 39.7 °F 44.6 °F 100% 30.09 in 6.0 mi NE 9.2 mph - N/A   Overcast
8:31 PM 44.6 °F 40.7 °F 44.6 °F 100% 30.08 in 5.0 mi NE 6.9 mph - N/A   Overcast
8:32 PM 44.6 °F 40.7 °F 44.6 °F 100% 30.08 in 5.0 mi ENE 6.9 mph - N/A   Overcast
8:34 PM 44.6 °F 40.2 °F 44.6 °F 100% 30.07 in 5.0 mi ENE 8.1 mph - N/A Rain Light Rain
8:44 PM 44.6 °F 40.2 °F 44.6 °F 100% 30.06 in 5.0 mi ENE 8.1 mph - N/A Rain Light Rain
8:54 PM 44.6 °F 40.2 °F 44.6 °F 100% 30.05 in 5.0 mi ENE 8.1 mph - N/A   Light Drizzle
8:55 PM 45.3 °F 40.6 °F 45.1 °F 99% 30.05 in 5.0 mi ENE 9.2 mph - 0.01 in   Light Drizzle
8:59 PM 46.4 °F 42.9 °F 44.6 °F 93% 30.05 in 5.0 mi ENE 6.9 mph - N/A   Overcast
9:06 PM 46.4 °F 43.5 °F 46.4 °F 100% 30.05 in 6.0 mi ENE 5.8 mph - N/A   Overcast
9:30 PM 46.4 °F 43.5 °F 46.4 °F 100% 30.04 in 9.0 mi East 5.8 mph - N/A   Overcast
9:42 PM 48.2 °F - 46.4 °F 93% 30.04 in 7.0 mi ENE 5.8 mph - N/A   Overcast
9:48 PM 48.2 °F - 48.2 °F 100% 30.03 in 5.0 mi ENE 6.9 mph - N/A   Overcast
9:50 PM 48.2 °F - 48.2 °F 100% 30.03 in 4.0 mi ENE 5.8 mph - N/A Rain Light Rain
9:52 PM 48.2 °F - 48.2 °F 100% 30.03 in 4.0 mi ENE 4.6 mph - N/A Rain Light Rain
9:55 PM 47.8 °F - 47.5 °F 99% 30.03 in 3.0 mi ENE 5.8 mph - 0.00 in Rain Light Rain
10:13 PM 48.2 °F - 48.2 °F 100% 30.02 in 4.0 mi ENE 6.9 mph - N/A Rain Light Rain
10:19 PM 48.2 °F - 48.2 °F 100% 30.02 in 5.0 mi Variable 4.6 mph - N/A Rain Light Rain
10:24 PM 48.2 °F - 48.2 °F 100% 30.02 in 7.0 mi Calm Calm - N/A Rain Light Rain
10:35 PM 48.2 °F - 48.2 °F 100% 30.01 in 6.0 mi Calm Calm - N/A Rain Light Rain
10:39 PM 48.2 °F - 48.2 °F 100% 30.01 in 7.0 mi Calm Calm - N/A Rain Light Rain
10:47 PM 48.2 °F - 48.2 °F 100% 30.01 in 10.0 mi Calm Calm - N/A   Overcast
10:53 PM 48.2 °F - 48.2 °F 100% 30.01 in 9.0 mi NW 5.8 mph - N/A Rain Light Rain
10:55 PM 48.7 °F - 48.4 °F 99% 30.01 in 7.0 mi NW 5.8 mph - 0.05 in Rain Light Rain
11:00 PM 48.2 °F - 48.2 °F 100% 30.01 in 5.0 mi NW 4.6 mph - N/A Rain Rain
11:02 PM 48.2 °F - 48.2 °F 100% 30.01 in 5.0 mi NW 5.8 mph - N/A Rain Light Rain
11:04 PM 48.2 °F - 48.2 °F 100% 30.01 in 5.0 mi NW 4.6 mph - N/A Rain Light Rain
11:13 PM 48.2 °F - 48.2 °F 100% 30.00 in 9.0 mi NW 5.8 mph - N/A   Light Drizzle
11:14 PM 48.2 °F - 48.2 °F 100% 30.00 in 9.0 mi NW 4.6 mph - N/A   Overcast
11:24 PM 48.2 °F - 48.2 °F 100% 30.00 in 8.0 mi NW 4.6 mph - N/A   Overcast
11:29 PM 48.2 °F - 48.2 °F 100% 29.99 in 7.0 mi NNW 5.8 mph - N/A Rain Light Rain
11:33 PM 48.2 °F - 48.2 °F 100% 30.00 in 6.0 mi West 3.5 mph - N/A Rain Light Rain
11:40 PM 48.2 °F - 48.2 °F 100% 29.99 in 7.0 mi NW 4.6 mph - N/A Rain Light Rain
11:43 PM 48.2 °F - 48.2 °F 100% 29.99 in 9.0 mi NW 5.8 mph - N/A   Overcast
11:55 PM 48.4 °F - 48.2 °F 99% 29.98 in 10.0 mi NW 4.6 mph - 0.02 in   Overcast
11:56 PM 48.2 °F - 48.2 °F 100% 29.98 in 9.0 mi NW 4.6 mph - N/A   Overcast